Regional Weather Roundup
Issued by NWS

Home | Current Version | Previous Version | Text Only | Print | Product List | Glossary On
Versions: 1 2 3 4 5 6 7 8 9 10 11 12 13 14 15 16 17 18 19 20 21 22 23 24 25 26 27 28 29 30 31 32 33 34 35 36 37 38 39 40 41 42 43 44 45 46 47 48 49 50
221
ASUS43 KMKX 191211
RWRWI

WISCONSIN REGIONAL WEATHER ROUNDUP
NATIONAL WEATHER SERVICE MILWAUKEE/SULLIVAN WI
700 AM CDT TUE SEP 19 2017

NOTE: "FAIR" INDICATES FEW OR NO CLOUDS BELOW 12,000 FEET WITH NO
SIGNIFICANT WEATHER AND/OR OBSTRUCTIONS TO VISIBILITY.

WIZ001-002-006>008-014>016-023>028-191300-
NORTHWEST WISCONSIN

CITY           SKY/WX    TMP DP  RH WIND       PRES   REMARKS
SUPERIOR ARPT  CLOUDY    57  57  99 CALM      29.95S
6HR MIN TEMP:  55; 6HR MAX TEMP:  57;

ASHLAND        CLOUDY    57  53  86 SE3       29.98F
6HR MIN TEMP:  55; 6HR MAX TEMP:  57;

HAYWARD        CLOUDY    58  53  84 SE6       29.98R
6HR MIN TEMP:  57; 6HR MAX TEMP:  59;

SIREN          MOCLDY    58  56  92 SE3       29.95R
6HR MIN TEMP:  57; 6HR MAX TEMP:  59;

CUMBERLAND     CLOUDY    55  54  94 SE7       29.97S
RICE LAKE      CLOUDY    58  56  93 E6        29.98F
6HR MIN TEMP:  56; 6HR MAX TEMP:  58;

CHETEK         CLOUDY    58  56  94 CALM      29.97S
6HR MIN TEMP:  57; 6HR MAX TEMP:  58;

LADYSMITH      CLOUDY    56  54  92 E5        30.01S
6HR MIN TEMP:  55; 6HR MAX TEMP:  59;

EAU CLAIRE     MOCLDY    57  55  93 E6        29.96S
6HR MIN TEMP:  57; 6HR MAX TEMP:  59;

MENOMONIE      CLOUDY    58  57  96 E7        29.96S
6HR MIN TEMP:  56; 6HR MAX TEMP:  59;

NEW RICHMOND   CLOUDY    58  57  95 E3        29.95S
6HR MIN TEMP:  57; 6HR MAX TEMP:  58;

OSCEOLA        CLOUDY    59  59 100 SE7       29.96F
6HR MIN TEMP:  55; 6HR MAX TEMP:  59;

$$

WIZ003>005-009-010-017-018-191300-
NORTH CENTRAL WISCONSIN

CITY           SKY/WX    TMP DP  RH WIND       PRES   REMARKS
MANITOWISH WTR CLOUDY    54  54 100 S5        30.03R
6HR MIN TEMP:  54; 6HR MAX TEMP:  55;

ARBOR VITAE    CLOUDY    57  54  89 SE5       30.03S
6HR MIN TEMP:  57; 6HR MAX TEMP:  57;

WOODRUFF       CLOUDY    57  54  89 SE5       30.03S
6HR MIN TEMP:  57; 6HR MAX TEMP:  57;

RHINELANDER    CLOUDY    53  52  96 E5        30.04S
6HR MIN TEMP:  51; 6HR MAX TEMP:  56;

EAGLE RIVER    CLOUDY    54  51  88 SE5       30.03S
6HR MIN TEMP:  54; 6HR MAX TEMP:  55;

LAND O LAKES   CLOUDY    54  52  94 SE3       30.05S
6HR MIN TEMP:  53; 6HR MAX TEMP:  54;

PHILLIPS       CLOUDY    54  53  98 E3        30.01R
6HR MIN TEMP:  53; 6HR MAX TEMP:  56;

TOMAHAWK         N/A     53  49  88 CALM      30.03S
6HR MIN TEMP:  50; 6HR MAX TEMP:  55;

MEDFORD        CLOUDY    53  51  93 E5        30.01R
6HR MIN TEMP:  52; 6HR MAX TEMP:  55;

MERRILL        PTCLDY    46  46 100 NE3       30.03S
$$

WIZ029-030-035-036-043>047-191300-
CENTRAL WISCONSIN

CITY           SKY/WX    TMP DP  RH WIND       PRES   REMARKS
WAUSAU         CLOUDY    54  52  93 E5        30.01R
6HR MIN TEMP:  53; 6HR MAX TEMP:  57;

MOSINEE        CLOUDY    55  54  94 E5        30.03R
MARSHFIELD     CLOUDY    56  52  86 E7        30.01R
6HR MIN TEMP:  55; 6HR MAX TEMP:  58;

STEVENS POINT  CLOUDY    54  54  99 NE6       30.02R
6HR MIN TEMP:  53; 6HR MAX TEMP:  56; 6HR PCP:  0.07;

WAUPACA        CLOUDY    59  55  85 CALM      30.01S
6HR MIN TEMP:  58; 6HR MAX TEMP:  59;

WAUTOMA        CLEAR     53  52  96 CALM      30.01R
6HR MIN TEMP:  53; 6HR MAX TEMP:  59;

WISC RAPIDS    CLOUDY    58  53  84 E5        30.02R
6HR MIN TEMP:  57; 6HR MAX TEMP:  60;

CAMP DOUGLAS   MOCLDY    55  55 100 E5        29.99R
$$

WIZ011>013-019>022-031-037>040-048>050-191300-
NORTHEAST WISCONSIN

CITY           SKY/WX    TMP DP  RH WIND       PRES   REMARKS
ANTIGO         CLOUDY    55  54  97 E8        30.04R
6HR MIN TEMP:  53; 6HR MAX TEMP:  55;

SHAWANO        CLOUDY    59  56  91 NE6       30.01S
6HR MIN TEMP:  58; 6HR MAX TEMP:  61;

OCONTO         CLOUDY    60  58  93 CALM      30.02R
6HR MIN TEMP:  56; 6HR MAX TEMP:  62;

STURGEON BAY   CLOUDY    61  59  93 E7        30.02R
6HR MIN TEMP:  58; 6HR MAX TEMP:  61;

GREEN BAY      CLEAR     56  56 100 N5        30.00S
6HR MIN TEMP:  56; 6HR MAX TEMP:  61; 6HR PCP:  0.01;

MANITOWOC      CLOUDY    59  58  96 N3        30.01
6HR MIN TEMP:  57; 6HR MAX TEMP:  59;

APPLETON       MOCLDY    59  57  94 NE7       29.99S
CLINTONVILLE   PTCLDY    54  54 100 CALM      30.02R
OSHKOSH        MOCLDY    60  57  89 NE3       29.99S
6HR MIN TEMP:  58; 6HR MAX TEMP:  63;

$$

WIZ032>034-041-042-053>061-191300-
SOUTHWEST WISCONSIN

CITY           SKY/WX    TMP DP  RH WIND       PRES   REMARKS
LA CROSSE      MOCLDY    59  57  93 E7        29.96R
6HR MIN TEMP:  59; 6HR MAX TEMP:  62; 6HR PCP:  0.01;

SPARTA         CLOUDY    54  54  99 CALM      29.99R
6HR MIN TEMP:  54; 6HR MAX TEMP:  57; 6HR PCP:  0.13;

VIROQUA        CLEAR     54  54 100 E6        29.98R
6HR MIN TEMP:  54; 6HR MAX TEMP:  60;

BOSCOBEL       CLEAR     53  52  96 CALM      29.97S
6HR MIN TEMP:  53; 6HR MAX TEMP:  62;

PRAIRIE DU CHI CLOUDY    58  56  91 CALM      29.97R
6HR MIN TEMP:  56; 6HR MAX TEMP:  60;

PLATTEVILLE    CLEAR     56  56 100 E6        29.97S
6HR MIN TEMP:  56; 6HR MAX TEMP:  63;

$$

WIZ056-057-062-063-064-067-068-191300-
SOUTH CENTRAL WISCONSIN

CITY           SKY/WX    TMP DP  RH WIND       PRES   REMARKS
REEDSBURG      CLEAR     54  54 100 CALM      29.99R
6HR MIN TEMP:  54; 6HR MAX TEMP:  60;

BARABOO/DELLS  MOCLDY    56  54  93 CALM      29.99R
6HR MIN TEMP:  55; 6HR MAX TEMP:  60;

LONE ROCK      CLEAR     56  56 100 CALM      29.98R
6HR MIN TEMP:  56; 6HR MAX TEMP:  63;

MINERAL POINT  CLEAR     59  57  94 CALM      29.98R
MADISON        PTCLDY    55  54  96 NW5       29.97S
6HR MIN TEMP:  55; 6HR MAX TEMP:  60;

MIDDLETON      PTCLDY    55  55 100 CALM      29.98S
6HR MIN TEMP:  55; 6HR MAX TEMP:  62;

WATERTOWN      MOCLDY    58  58 100 CALM      29.98S
6HR MIN TEMP:  57; 6HR MAX TEMP:  60;

MONROE         CLOUDY    59  57  94 CALM      29.97R
JANESVILLE     MOCLDY    63  63 100 CALM      29.95S
$$

WIZ051-052-058>065-066-070>072-191300-
SOUTHEAST WISCONSIN

CITY           SKY/WX    TMP DP  RH WIND       PRES   REMARKS
MILWAUKEE      MOCLDY    64  62  93 NW6       29.96S
6HR MIN TEMP:  64; 6HR MAX TEMP:  66;

WAUKESHA       MOCLDY    59  57  94 CALM      29.98S
MILWAUKEE/TIMM MOCLDY    59  55  88 N3        29.98S
RACINE         CLOUDY    65  64  97 NW5       29.98R
6HR MIN TEMP:  63; 6HR MAX TEMP:  66;

BURLINGTON     MOCLDY    58  58 100 CALM      29.96S
6HR MIN TEMP:  58; 6HR MAX TEMP:  61;

KENOSHA        CLOUDY    65  62  90 N7        29.96R
6HR MIN TEMP:  62; 6HR MAX TEMP:  65;

FOND DU LAC    PTCLDY    55  52  89 E3        29.99S
6HR MIN TEMP:  54; 6HR MAX TEMP:  62;

SHEBOYGAN      CLOUDY    59  59 100 N3        29.99R
6HR MIN TEMP:  57; 6HR MAX TEMP:  60;

WEST BEND        N/A     57  57 100 CALM      29.99R
JUNEAU         PTCLDY    55  54  97 CALM      30.00R
6HR MIN TEMP:  54; 6HR MAX TEMP:  58;

$$

LSZ147-162-191300-
LAKE SUPERIOR

STATION/POSITION TIME  TEMP    WIND        PRES    WAVE
                       AIR SEA DIR/SP/G            HT/PER
                 (UTC) (F)     (DEG/KT/KT) (MB)    (FT/S)
W MID LAKE BUOY  1150   57 55  140/  8/ 10 1015.8R   1
DEVILS ISLAND    1200   59     130/  8/ 10 1015.3S
PORT WING        0940   58     100/  1/  2 1014.9
SAXON HARBOR     1140   60     190/  3/  5 1014.9R
$$

LMZ867-665-643>646-191300-
LAKE MICHIGAN

STATION/POSITION TIME  TEMP    WIND        PRES    WAVE
                       AIR SEA DIR/SP/G            HT/PER
                 (UTC) (F)     (DEG/KT/KT) (MB



USA.gov is the U.S. government's official web portal to all federal, state and local government web resources and services.